Location: Unspecified
(46.6049°N, 0.0000°E)
Time: 18:36:26
(UTC+00:00)

Transit 4A - All Passes

Search period start: 04 April 2026 00:00
Search period end: 14 April 2026 00:00
Orbit: 863 x 978 km, 66.8° (Epoch: 29 March)

Date Brightness Start Highest point End Pass type
(mag) Time Alt. Az. Time Alt. Az. Time Alt. Az.
4 Apr - 00:01:16 10° NNW 00:06:02 22° NNE 00:10:49 10° E visible
4 Apr - 01:47:08 10° NNW 01:53:30 71° NE 01:59:54 10° SE visible
4 Apr - 03:34:20 10° NW 03:39:18 24° WSW 03:44:16 10° SSW visible
4 Apr - 16:56:22 10° S 17:02:09 54° ESE 17:08:09 10° NE daylight
4 Apr - 18:43:14 10° WSW 18:48:45 36° NW 18:54:27 10° NNE daylight
4 Apr - 20:33:58 10° NW 20:37:05 14° NNW 20:40:16 10° NNE visible
4 Apr - 22:23:57 10° NNW 22:26:26 12° N 22:28:56 10° NE visible
5 Apr - 00:09:54 10° NNW 00:15:11 27° NE 00:20:29 10° E visible
5 Apr - 01:55:53 10° NW 02:02:17 86° WSW 02:08:42 10° SSE visible
5 Apr - 03:43:54 10° WNW 03:47:45 17° WSW 03:51:35 10° SW visible
5 Apr - 15:23:00 10° SE 15:25:36 13° E 15:28:14 10° ENE daylight
5 Apr - 17:04:51 10° SSW 17:10:49 76° ESE 17:17:01 10° NE daylight
5 Apr - 18:52:38 10° W 18:57:48 28° NW 19:03:06 10° NNE visible
5 Apr - 20:43:53 10° NW 20:46:27 12° NNW 20:49:02 10° NNE visible
5 Apr - 22:32:44 10° NNW 22:35:48 14° NNE 22:38:54 10° NE visible
6 Apr - 00:18:32 10° NNW 00:24:14 33° NE 00:29:59 10° ESE visible
6 Apr - 02:04:42 10° NW 02:11:00 63° WSW 02:17:18 10° SSE visible
6 Apr - 03:54:38 10° W 03:56:06 11° W 03:57:34 10° WSW visible
6 Apr - 15:29:49 10° SSE 15:33:59 20° ESE 15:38:14 10° ENE daylight
6 Apr - 17:13:32 10° SW 17:19:33 80° NW 17:25:49 10° NNE daylight
6 Apr - 19:02:12 10° W 19:06:54 22° NNW 19:11:45 10° NNE visible
6 Apr - 20:53:43 10° NNW 20:55:50 12° N 20:57:57 10° NNE visible
6 Apr - 22:41:25 10° NNW 22:45:08 16° NNE 22:48:52 10° ENE visible
7 Apr - 00:27:11 10° NNW 00:33:14 43° NE 00:39:18 10° ESE visible
7 Apr - 02:13:37 10° NW 02:19:38 45° WSW 02:25:39 10° S visible
7 Apr - 15:37:26 10° SSE 15:42:26 29° ESE 15:47:36 10° NE daylight
7 Apr - 17:22:26 10° SW 17:28:22 59° NW 17:34:33 10° NNE daylight
7 Apr - 19:11:56 10° WNW 19:16:06 19° NNW 19:20:22 10° NNE visible
7 Apr - 21:03:18 10° NNW 21:05:15 11° N 21:07:13 10° NNE visible
7 Apr - 22:50:03 10° NNW 22:54:23 19° NNE 22:58:45 10° ENE visible
8 Apr - 00:35:52 10° NNW 00:42:09 57° NE 00:48:26 10° SE visible
8 Apr - 02:22:40 10° NW 02:28:12 32° WSW 02:33:43 10° S visible
8 Apr - 15:45:25 10° S 15:50:57 41° ESE 15:56:42 10° NE daylight
8 Apr - 17:31:31 10° WSW 17:37:17 44° NW 17:43:14 10° NNE daylight
8 Apr - 19:21:45 10° WNW 19:25:22 16° NNW 19:29:02 10° NNE visible
8 Apr - 21:12:30 10° NNW 21:14:40 12° N 21:16:50 10° NNE visible
8 Apr - 22:58:41 10° NNW 23:03:35 23° NNE 23:08:31 10° E visible
9 Apr - 00:44:34 10° NNW 00:50:59 77° NE 00:57:24 10° SE visible
9 Apr - 02:31:56 10° WNW 02:36:42 22° WSW 02:41:26 10° SSW visible
9 Apr - 15:53:42 10° SSW 15:59:34 58° ESE 16:05:39 10° NE daylight
9 Apr - 17:40:48 10° WSW 17:46:16 34° NW 17:51:54 10° NNE daylight
9 Apr - 19:31:40 10° NW 19:34:41 14° NNW 19:37:45 10° NNE visible
9 Apr - 21:21:24 10° NNW 21:24:02 13° NNE 21:26:42 10° NE visible
9 Apr - 23:07:19 10° NNW 23:12:43 28° NE 23:18:09 10° E visible
10 Apr - 00:53:21 10° NW 00:59:45 80° WSW 01:06:09 10° SSE visible
10 Apr - 02:41:39 10° WNW 02:45:06 15° WSW 02:48:34 10° SW visible
10 Apr - 14:19:49 10° SE 14:22:57 15° ESE 14:26:08 10° ENE daylight
10 Apr - 16:02:14 10° SSW 16:08:15 82° ESE 16:14:30 10° NE daylight
10 Apr - 17:50:14 10° W 17:55:19 27° NW 18:00:32 10° NNE daylight
10 Apr - 19:41:35 10° NNW 19:44:03 12° N 19:46:32 10° NNE visible
10 Apr - 21:30:09 10° NNW 21:33:24 14° NNE 21:36:40 10° NE visible
10 Apr - 23:15:57 10° NNW 23:21:46 36° NE 23:27:36 10° ESE visible
11 Apr - 01:02:11 10° NW 01:08:26 58° WSW 01:14:40 10° SSE visible
11 Apr - 14:26:56 10° SSE 14:31:21 22° ESE 14:35:53 10° ENE daylight
11 Apr - 16:10:59 10° SW 16:17:01 74° NW 16:23:17 10° NNE daylight
11 Apr - 17:59:51 10° W 18:04:27 21° NNW 18:09:11 10° NNE daylight
11 Apr - 19:51:22 10° NNW 19:53:26 12° N 19:55:32 10° NNE visible
11 Apr - 21:38:49 10° NNW 21:42:42 16° NNE 21:46:37 10° ENE visible
11 Apr - 23:24:36 10° NNW 23:30:44 46° NE 23:36:52 10° ESE visible
12 Apr - 01:11:08 10° NW 01:17:03 41° WSW 01:22:58 10° S visible
12 Apr - 14:34:38 10° S 14:39:49 31° ESE 14:45:10 10° NE daylight
12 Apr - 16:19:56 10° SW 16:25:51 54° NW 16:32:00 10° NNE daylight
12 Apr - 18:09:36 10° WNW 18:13:40 18° NNW 18:17:50 10° NNE daylight
12 Apr - 20:00:51 10° NNW 20:02:52 11° N 20:04:52 10° NNE visible
12 Apr - 21:47:28 10° NNW 21:51:57 20° NNE 21:56:29 10° ENE visible
12 Apr - 23:33:17 10° NNW 23:39:38 61° NE 23:45:58 10° SE visible
13 Apr - 01:20:13 10° NW 01:25:36 29° WSW 01:30:57 10° SSW visible
13 Apr - 14:42:42 10° S 14:48:22 45° ESE 14:54:13 10° NE daylight
13 Apr - 16:29:04 10° WSW 16:34:46 41° NW 16:40:41 10° NNE daylight
13 Apr - 18:19:27 10° NW 18:22:57 15° NNW 18:26:29 10° NNE daylight
13 Apr - 20:09:59 10° NNW 20:12:16 12° N 20:14:33 10° NNE visible
13 Apr - 21:56:05 10° NNW 22:01:08 24° NE 22:06:12 10° E visible
13 Apr - 23:42:01 10° NNW 23:48:27 82° NE 23:54:52 10° SE visible
